Погода в Карпиной Горе

Россия / Новгородская область     58°38′10″N   32°29′06″E
темп.,
°C
ветер,
м/с
пор.,
м/с
влажн.,
%
обл.,
%
осадки,
мм/ч
давл.,
гПа
погр.,
м
25 июня, сб
сб2500:00+16ссз11720 0.0 101811
03:00+15ю00790 0.0 101911
06:00+17ююз117517 0.0 101946
09:00+24зюз11545 0.0 1020516
12:00+28зсз11415 0.0 10201335
15:00+29ссз22375 0.0 10191640
18:00+29ссз22418 0.0 10191467
21:00+23с11675 0.0 101911
26 июня, вс
вс2600:00+19ююз00750 0.0 102111
03:00+18в01785 0.0 102211
06:00+20ююз11763 0.0 102240
09:00+26з22550 0.0 1022502
12:00+30зсз23400 0.0 10221626
15:00+31зсз33365 0.0 10212111
18:00+30сз34410 0.0 10202079
21:00+24з22695 0.0 102028
27 июня, пн
пн2700:00+20с11695 0.0 102211
03:00+18ссз12695 0.0 102212
06:00+20сз14710 0.0 1023116
09:00+25сз24500 0.0 1022473
12:00+30сз34390 0.0 10221684
15:00+31сз353585 0.0 10212968
18:00+30ссв354297 0.0 10211577
21:00+23св2370100 0.0 102250
28 июня, вт
вт2800:00+20всв2473100 0.0 102382
03:00+18в388457 0.0 1024191
06:00+18в377918 0.0 1025212
09:00+23в34575 0.0 1025606
12:00+26всв334231 0.0 10251275
15:00+27всв333239 0.0 10241841
18:00+26св33315 0.0 10241655
21:00+19всв24591 0.0 102460
29 июня, ср
ср2900:00+15вюв311665 0.0 1026227
03:00+13вюв39660 0.0 1027187
06:00+14вюв27730 0.0 1027174
09:00+21вюв23455 0.0 1027662
12:00+24вюв232968 0.0 10271364
15:00+26вюв33250 0.0 10251509
18:00+25вюв2228100 0.0 10251452
21:00+19вюв22555 0.0 102535